• In Hungary
  • List of Countries
  • For 7 days
  • Water Temperature
  • Satellite Maps
  • Weather Map
  • News
  • Weather Widgets
  • user-avatar
    Login

    Hourly Weather Assen

    Today, 19 September, Wednesday

    Time Temperature Precipitation Wind Pressure Humidity
    00:00 +14°C° 0 mm 4 mps 760 mmHg 94%
    01:00 +14°C° 0 mm 4 mps 760 mmHg 94%
    02:00 +14°C° 0 mm 4 mps 760 mmHg 94%
    03:00 +14°C° 0 mm 4 mps 760 mmHg 95%
    04:00 +14°C° 0 mm 4 mps 760 mmHg 94%
    05:00 +14°C° 0 mm 4 mps 760 mmHg 93%
    06:00 +14°C° 0 mm 4 mps 760 mmHg 92%
    07:00 +16°C° 0 mm 5 mps 760 mmHg 84%
    08:00 +19°C° 0 mm 5 mps 760 mmHg 77%
    09:00 +21°C° 0 mm 5 mps 760 mmHg 70%
    10:00 +22°C° 0 mm 6 mps 760 mmHg 67%
    11:00 +23°C° 0 mm 6 mps 760 mmHg 63%
    12:00 +24°C° 0 mm 7 mps 760 mmHg 60%
    13:00 +24°C° 0 mm 7 mps 760 mmHg 59%
    14:00 +24°C° 0 mm 7 mps 759 mmHg 58%
    15:00 +24°C° 0 mm 7 mps 759 mmHg 58%
    16:00 +22°C° 0 mm 6 mps 759 mmHg 63%
    17:00 +21°C° 0 mm 6 mps 759 mmHg 68%
    18:00 +20°C° 0 mm 5 mps 760 mmHg 73%
    19:00 +19°C° 0 mm 5 mps 760 mmHg 74%
    20:00 +19°C° 0 mm 5 mps 760 mmHg 76%
    21:00 +17°C° 0 mm 5 mps 760 mmHg 77%
    22:00 +17°C° 0 mm 6 mps 760 mmHg 78%
    23:00 +17°C° 0 mm 6 mps 760 mmHg 79%

    Tomorrow, 20 September, Thursday

    Time Temperature Precipitation Wind Pressure Humidity
    00:00 +17°C° 0 mm 6 mps 760 mmHg 79%
    01:00 +16°C° 0 mm 5 mps 760 mmHg 82%
    02:00 +16°C° 0 mm 5 mps 760 mmHg 85%
    03:00 +16°C° 0 mm 5 mps 760 mmHg 88%
    04:00 +15°C° 0 mm 5 mps 760 mmHg 89%
    05:00 +15°C° 0 mm 5 mps 760 mmHg 91%
    06:00 +15°C° 0 mm 5 mps 760 mmHg 92%
    07:00 +16°C° 0 mm 5 mps 760 mmHg 85%
    08:00 +19°C° 0 mm 6 mps 760 mmHg 79%
    09:00 +20°C° 0 mm 7 mps 760 mmHg 72%
    10:00 +21°C° 0 mm 7 mps 760 mmHg 68%
    11:00 +22°C° 0 mm 8 mps 759 mmHg 63%
    12:00 +23°C° 0 mm 8 mps 759 mmHg 59%
    13:00 +23°C° 0 mm 7 mps 759 mmHg 59%
    14:00 +24°C° 0 mm 7 mps 759 mmHg 59%
    15:00 +24°C° 0 mm 6 mps 758 mmHg 58%
    16:00 +22°C° 0 mm 5 mps 758 mmHg 63%
    17:00 +21°C° 0 mm 5 mps 758 mmHg 68%
    18:00 +20°C° 0 mm 4 mps 757 mmHg 73%
    19:00 +19°C° 0 mm 4 mps 757 mmHg 76%
    20:00 +19°C° 0 mm 4 mps 756 mmHg 78%
    21:00 +18°C° 0 mm 4 mps 756 mmHg 81%
    22:00 +17°C° 0 mm 5 mps 755 mmHg 79%
    23:00 +19°C° 0 mm 5 mps 754 mmHg 76%

    Day after tomorrow, 21 September, Friday

    Time Temperature Precipitation Wind Pressure Humidity
    00:00 +19°C° 0 mm 6 mps 754 mmHg 74%
    01:00 +18°C° 0 mm 7 mps 753 mmHg 68%
    02:00 +20°C° 0 mm 7 mps 752 mmHg 63%
    03:00 +20°C° 0 mm 8 mps 751 mmHg 57%
    04:00 +21°C° 0 mm 8 mps 751 mmHg 56%
    05:00 +21°C° 0 mm 9 mps 750 mmHg 55%
    06:00 +21°C° 0 mm 9 mps 749 mmHg 55%
    07:00 +19°C° 2 mm 9 mps 749 mmHg 62%
    08:00 +18°C° 2 mm 10 mps 749 mmHg 69%
    09:00 +17°C° 2 mm 11 mps 749 mmHg 77%
    10:00 +16°C° 1.3 mm 10 mps 749 mmHg 75%
    11:00 +15°C° 1.3 mm 8 mps 750 mmHg 74%
    12:00 +12°C° 1.3 mm 7 mps 751 mmHg 73%
    13:00 +12°C° 0.2 mm 8 mps 752 mmHg 72%
    14:00 +12°C° 0.2 mm 8 mps 752 mmHg 71%
    15:00 +12°C° 0.2 mm 9 mps 752 mmHg 69%
    16:00 +11°C° 0.2 mm 8 mps 753 mmHg 71%
    17:00 +10°C° 0.2 mm 7 mps 753 mmHg 72%
    18:00 +9°C° 0.2 mm 6 mps 753 mmHg 74%
    19:00 +10°C° 0.4 mm 8 mps 753 mmHg 75%
    20:00 +10°C° 0.4 mm 9 mps 754 mmHg 76%
    21:00 +9°C° 0.4 mm 10 mps 754 mmHg 77%
    22:00 +10°C° 0.6 mm 9 mps 755 mmHg 79%
    23:00 +10°C° 0.6 mm 8 mps 756 mmHg 80%

    22 September, Saturday

    Time Temperature Precipitation Wind Pressure Humidity
    00:00 +10°C° 0.6 mm 8 mps 757 mmHg 82%
    01:00 +9°C° 0.1 mm 8 mps 758 mmHg 82%
    02:00 +9°C° 0.1 mm 7 mps 758 mmHg 83%
    03:00 +9°C° 0.1 mm 7 mps 759 mmHg 84%
    04:00 +9°C° 0.1 mm 7 mps 759 mmHg 83%
    05:00 +9°C° 0.1 mm 7 mps 760 mmHg 83%
    06:00 +9°C° 0.1 mm 7 mps 760 mmHg 82%
    07:00 +10°C° 0.1 mm 8 mps 761 mmHg 77%
    08:00 +11°C° 0.1 mm 8 mps 761 mmHg 72%
    09:00 +12°C° 0.1 mm 9 mps 762 mmHg 66%
    10:00 +12°C° 0.2 mm 9 mps 762 mmHg 65%
    11:00 +12°C° 0.2 mm 9 mps 762 mmHg 64%
    12:00 +13°C° 0.2 mm 8 mps 763 mmHg 63%
    13:00 +13°C° 0.1 mm 8 mps 763 mmHg 62%
    14:00 +13°C° 0.1 mm 8 mps 763 mmHg 62%
    15:00 +13°C° 0.1 mm 8 mps 763 mmHg 61%
    16:00 +11°C° 0.1 mm 6 mps 763 mmHg 67%
    17:00 +10°C° 0.1 mm 5 mps 763 mmHg 72%
    18:00 +10°C° 0.1 mm 4 mps 763 mmHg 77%
    19:00 +10°C° 0 mm 4 mps 763 mmHg 78%
    20:00 +9°C° 0 mm 3 mps 763 mmHg 78%
    21:00 +9°C° 0 mm 3 mps 763 mmHg 79%
    22:00 +9°C° 0 mm 3 mps 763 mmHg 78%
    23:00 +9°C° 0 mm 3 mps 762 mmHg 76%

    23 September, Sunday

    Time Temperature Precipitation Wind Pressure Humidity
    00:00 +9°C° 0 mm 3 mps 761 mmHg 75%
    01:00 +8°C° 0.3 mm 4 mps 761 mmHg 78%
    02:00 +8°C° 0.3 mm 4 mps 760 mmHg 80%
    03:00 +8°C° 0.3 mm 4 mps 759 mmHg 83%
    04:00 +8°C° 1.1 mm 6 mps 757 mmHg 85%
    05:00 +8°C° 1.1 mm 7 mps 756 mmHg 88%
    06:00 +7°C° 1.1 mm 8 mps 754 mmHg 90%
    07:00 +7°C° 1.3 mm 9 mps 752 mmHg 90%
    08:00 +8°C° 1.3 mm 10 mps 751 mmHg 89%
    09:00 +8°C° 1.3 mm 11 mps 749 mmHg 89%
    10:00 +9°C° 0.4 mm 11 mps 747 mmHg 86%
    11:00 +11°C° 0.4 mm 11 mps 745 mmHg 84%
    12:00 +13°C° 0.4 mm 11 mps 743 mmHg 81%
    13:00 +13°C° 0.8 mm 10 mps 742 mmHg 81%
    14:00 +15°C° 0.8 mm 9 mps 740 mmHg 82%
    15:00 +15°C° 0.8 mm 8 mps 739 mmHg 83%
    16:00 +14°C° 0.2 mm 7 mps 738 mmHg 83%
    17:00 +12°C° 0.2 mm 7 mps 736 mmHg 82%
    18:00 +11°C° 0.2 mm 7 mps 735 mmHg 82%
    19:00 +10°C° 0.9 mm 6 mps 735 mmHg 86%
    20:00 +10°C° 0.9 mm 5 mps 735 mmHg 89%
    21:00 +11°C° 0.9 mm 4 mps 734 mmHg 92%
    22:00 +10°C° 0.5 mm 5 mps 736 mmHg 91%
    23:00 +10°C° 0.5 mm 7 mps 738 mmHg 91%

    24 September, Monday

    Time Temperature Precipitation Wind Pressure Humidity
    00:00 +10°C° 0.5 mm 8 mps 740 mmHg 90%
    01:00 +9°C° 0.4 mm 11 mps 742 mmHg 88%
    02:00 +9°C° 0.4 mm 13 mps 745 mmHg 85%
    03:00 +10°C° 0.4 mm 15 mps 747 mmHg 83%
    04:00 +10°C° 0.3 mm 14 mps 749 mmHg 81%
    05:00 +9°C° 0.3 mm 13 mps 751 mmHg 80%
    06:00 +9°C° 0.3 mm 13 mps 752 mmHg 78%
    07:00 +9°C° 0.4 mm 13 mps 754 mmHg 77%
    08:00 +10°C° 0.4 mm 13 mps 755 mmHg 76%
    09:00 +10°C° 0.4 mm 13 mps 757 mmHg 75%
    10:00 +12°C° 0.4 mm 13 mps 758 mmHg 73%
    11:00 +12°C° 0.4 mm 13 mps 759 mmHg 71%
    12:00 +12°C° 0.4 mm 13 mps 760 mmHg 69%
    13:00 +12°C° 0.3 mm 13 mps 761 mmHg 68%
    14:00 +12°C° 0.3 mm 12 mps 762 mmHg 67%
    15:00 +12°C° 0.3 mm 12 mps 763 mmHg 65%
    16:00 +11°C° 0.1 mm 11 mps 764 mmHg 67%
    17:00 +11°C° 0.1 mm 10 mps 765 mmHg 68%
    18:00 +10°C° 0.1 mm 9 mps 766 mmHg 69%
    19:00 +10°C° 0 mm 9 mps 767 mmHg 69%
    20:00 +10°C° 0 mm 8 mps 767 mmHg 69%
    21:00 +10°C° 0 mm 8 mps 768 mmHg 68%
    22:00 +9°C° 0 mm 8 mps 768 mmHg 69%
    23:00 +9°C° 0 mm 8 mps 769 mmHg 70%
    Show more